Time,TemperatureF,DewpointF,PressureIn,WindDirection,WindDirectionDegrees,WindSpeedMPH,WindSpeedGustMPH,Humidity,HourlyPrecipIn,Conditions,Clouds,dailyrainin,SoftwareType,DateUTC
2013-01-26 00:02:00,19.4,17.0,30.05,ESE,112,0.0,-999.0,90,-99.99,,,0.00,Acu-Link.com,2013-01-26 05:02:00,
2013-01-26 00:17:00,19.4,17.0,30.05,ENE,67,0.0,-999.0,90,-99.99,,,0.00,Acu-Link.com,2013-01-26 05:17:00,
2013-01-26 00:32:00,19.4,17.0,30.05,East,90,0.0,-999.0,90,-99.99,,,0.00,Acu-Link.com,2013-01-26 05:32:00,
2013-01-26 00:48:00,19.4,17.0,30.05,ENE,67,0.0,-999.0,90,-99.99,,,0.00,Acu-Link.com,2013-01-26 05:48:00,
2013-01-26 01:03:00,19.4,17.0,30.05,NE,45,0.0,-999.0,90,-99.99,,,0.00,Acu-Link.com,2013-01-26 06:03:00,
2013-01-26 01:18:00,19.4,17.0,30.04,East,90,0.0,-999.0,90,-99.99,,,0.00,Acu-Link.com,2013-01-26 06:18:00,
2013-01-26 01:33:00,19.4,17.0,30.05,ENE,67,0.0,-999.0,90,-99.99,,,0.00,Acu-Link.com,2013-01-26 06:33:00,
2013-01-26 01:49:00,19.4,17.0,30.05,East,90,0.0,-999.0,90,-99.99,,,0.00,Acu-Link.com,2013-01-26 06:49:00,
2013-01-26 02:04:00,19.4,17.0,30.06,East,90,0.0,-999.0,90,-99.99,,,0.00,Acu-Link.com,2013-01-26 07:04:00,
2013-01-26 02:19:00,19.4,17.2,30.06,East,90,0.0,-999.0,91,-99.99,,,0.00,Acu-Link.com,2013-01-26 07:19:00,
2013-01-26 02:34:00,19.4,17.2,30.06,ESE,112,0.0,-999.0,91,-99.99,,,0.00,Acu-Link.com,2013-01-26 07:34:00,
2013-01-26 02:49:00,19.4,17.2,30.07,East,90,0.0,-999.0,91,-99.99,,,0.00,Acu-Link.com,2013-01-26 07:49:00,
2013-01-26 03:04:00,19.4,17.2,30.07,West,270,0.0,-999.0,91,-99.99,,,0.00,Acu-Link.com,2013-01-26 08:04:00,
2013-01-26 03:20:00,19.4,17.2,30.07,East,90,0.0,-999.0,91,-99.99,,,0.00,Acu-Link.com,2013-01-26 08:20:00,
2013-01-26 03:35:00,19.4,17.2,30.07,East,90,0.0,-999.0,91,-99.99,,,0.00,Acu-Link.com,2013-01-26 08:35:00,
2013-01-26 03:50:00,19.4,17.2,30.07,ESE,112,0.0,-999.0,91,-99.99,,,0.00,Acu-Link.com,2013-01-26 08:50:00,
2013-01-26 04:16:00,19.4,17.2,30.08,ESE,112,0.0,-999.0,91,-99.99,,,0.00,Acu-Link.com,2013-01-26 09:16:00,
2013-01-26 04:31:00,19.4,17.2,30.08,ESE,112,0.0,-999.0,91,-99.99,,,0.00,Acu-Link.com,2013-01-26 09:31:00,
2013-01-26 04:47:00,19.4,17.2,30.09,ESE,112,0.0,-999.0,91,-99.99,,,0.00,Acu-Link.com,2013-01-26 09:47:00,
2013-01-26 05:02:00,19.4,17.5,30.09,ESE,112,0.0,-999.0,92,-99.99,,,0.00,Acu-Link.com,2013-01-26 10:02:00,
2013-01-26 05:17:00,21.2,19.2,30.08,ESE,112,0.0,-999.0,92,-99.99,,,0.00,Acu-Link.com,2013-01-26 10:17:00,
2013-01-26 05:32:00,21.2,19.5,30.09,WSW,247,0.0,-999.0,93,-99.99,,,0.00,Acu-Link.com,2013-01-26 10:32:00,
2013-01-26 05:47:00,21.2,19.5,30.09,NNW,337,0.0,-999.0,93,-99.99,,,0.00,Acu-Link.com,2013-01-26 10:47:00,
2013-01-26 06:03:00,21.2,19.5,30.09,NW,315,0.0,-999.0,93,-99.99,,,0.00,Acu-Link.com,2013-01-26 11:03:00,
2013-01-26 06:18:00,21.2,19.5,30.10,SSW,202,0.0,-999.0,93,-99.99,,,0.00,Acu-Link.com,2013-01-26 11:18:00,
2013-01-26 06:33:00,21.2,19.5,30.10,West,270,0.0,-999.0,93,-99.99,,,0.00,Acu-Link.com,2013-01-26 11:33:00,
2013-01-26 06:48:00,23.0,21.0,30.11,West,270,0.0,-999.0,92,-99.99,,,0.00,Acu-Link.com,2013-01-26 11:48:00,
2013-01-26 07:04:00,23.0,21.0,30.12,West,270,0.0,-999.0,92,-99.99,,,0.00,Acu-Link.com,2013-01-26 12:04:00,
2013-01-26 07:19:00,23.0,21.0,30.12,SW,225,0.0,-999.0,92,-99.99,,,0.00,Acu-Link.com,2013-01-26 12:19:00,
2013-01-26 07:34:00,23.0,20.8,30.13,West,270,0.0,-999.0,91,-99.99,,,0.00,Acu-Link.com,2013-01-26 12:34:00,
2013-01-26 07:49:00,23.0,20.8,30.13,WNW,292,0.0,-999.0,91,-99.99,,,0.00,Acu-Link.com,2013-01-26 12:49:00,
2013-01-26 08:04:00,23.0,20.5,30.14,West,270,0.0,-999.0,90,-99.99,,,0.00,Acu-Link.com,2013-01-26 13:04:00,
2013-01-26 08:19:00,23.0,20.5,30.15,SW,225,0.0,-999.0,90,-99.99,,,0.00,Acu-Link.com,2013-01-26 13:19:00,
2013-01-26 08:35:00,23.0,20.3,30.16,NNW,337,0.0,-999.0,89,-99.99,,,0.00,Acu-Link.com,2013-01-26 13:35:00,
2013-01-26 08:50:00,23.0,20.0,30.17,WSW,247,0.0,-999.0,88,-99.99,,,0.00,Acu-Link.com,2013-01-26 13:50:00,
2013-01-26 09:05:00,24.8,21.5,30.18,West,270,0.0,-999.0,87,-99.99,,,0.00,Acu-Link.com,2013-01-26 14:05:00,
2013-01-26 09:21:00,24.8,20.7,30.18,East,90,0.0,-999.0,84,-99.99,,,0.00,Acu-Link.com,2013-01-26 14:21:00,
2013-01-26 09:36:00,26.6,21.6,30.17,West,270,0.0,-999.0,81,-99.99,,,0.00,Acu-Link.com,2013-01-26 14:36:00,
2013-01-26 09:51:00,26.6,21.3,30.18,SW,225,0.0,-999.0,80,-99.99,,,0.00,Acu-Link.com,2013-01-26 14:51:00,
2013-01-26 10:07:00,28.4,21.2,30.19,NW,315,0.0,-999.0,74,-99.99,,,0.00,Acu-Link.com,2013-01-26 15:07:00,
2013-01-26 10:22:00,28.4,20.5,30.19,WSW,247,0.0,-999.0,72,-99.99,,,0.00,Acu-Link.com,2013-01-26 15:22:00,
2013-01-26 10:37:00,28.4,19.9,30.21,WNW,292,3.6,-999.0,70,-99.99,,,0.00,Acu-Link.com,2013-01-26 15:37:00,
2013-01-26 10:53:00,28.4,19.6,30.22,WNW,292,5.6,-999.0,69,-99.99,,,0.00,Acu-Link.com,2013-01-26 15:53:00,
2013-01-26 11:08:00,28.4,18.9,30.22,NW,315,5.6,-999.0,67,-99.99,,,0.00,Acu-Link.com,2013-01-26 16:08:00,
2013-01-26 11:23:00,28.4,18.9,30.22,West,270,4.0,-999.0,67,-99.99,,,0.00,Acu-Link.com,2013-01-26 16:23:00,
2013-01-26 11:38:00,30.2,19.5,30.23,NW,315,1.6,-999.0,64,-99.99,,,0.00,Acu-Link.com,2013-01-26 16:38:00,
2013-01-26 11:54:00,28.4,19.2,30.24,WNW,292,3.1,-999.0,68,-99.99,,,0.00,Acu-Link.com,2013-01-26 16:54:00,
2013-01-26 12:09:00,28.4,18.9,30.24,West,270,3.6,-999.0,67,-99.99,,,0.00,Acu-Link.com,2013-01-26 17:09:00,
2013-01-26 12:24:00,28.4,18.9,30.25,West,270,1.6,-999.0,67,-99.99,,,0.00,Acu-Link.com,2013-01-26 17:24:00,
2013-01-26 12:40:00,28.4,19.2,30.26,South,180,3.1,-999.0,68,-99.99,,,0.00,Acu-Link.com,2013-01-26 17:40:00,
2013-01-26 12:55:00,28.4,18.2,30.26,WNW,292,5.6,-999.0,65,-99.99,,,0.00,Acu-Link.com,2013-01-26 17:55:00,
2013-01-26 13:10:00,28.4,17.4,30.26,NW,315,5.1,-999.0,63,-99.99,,,0.00,Acu-Link.com,2013-01-26 18:10:00,
2013-01-26 13:26:00,28.4,18.2,30.26,WNW,292,3.6,-999.0,65,-99.99,,,0.00,Acu-Link.com,2013-01-26 18:26:00,
2013-01-26 13:41:00,28.4,18.2,30.26,NW,315,3.6,-999.0,65,-99.99,,,0.00,Acu-Link.com,2013-01-26 18:41:00,
2013-01-26 13:56:00,28.4,19.2,30.26,WNW,292,3.6,-999.0,68,-99.99,,,0.00,Acu-Link.com,2013-01-26 18:56:00,
2013-01-26 14:11:00,28.4,19.2,30.26,SW,225,3.1,-999.0,68,-99.99,,,0.00,Acu-Link.com,2013-01-26 19:11:00,
2013-01-26 14:27:00,28.4,19.2,30.26,West,270,2.0,-999.0,68,-99.99,,,0.00,Acu-Link.com,2013-01-26 19:27:00,
2013-01-26 14:42:00,28.4,18.9,30.27,West,270,6.3,-999.0,67,-99.99,,,0.00,Acu-Link.com,2013-01-26 19:42:00,
2013-01-26 14:57:00,28.4,19.2,30.28,West,270,2.7,-999.0,68,-99.99,,,0.00,Acu-Link.com,2013-01-26 19:57:00,
2013-01-26 15:13:00,26.6,17.8,30.29,West,270,3.6,-999.0,69,-99.99,,,0.00,Acu-Link.com,2013-01-26 20:13:00,
2013-01-26 15:28:00,26.6,18.5,30.30,WNW,292,3.6,-999.0,71,-99.99,,,0.00,Acu-Link.com,2013-01-26 20:28:00,